Погода в Поселке Управленческий

Россия / Самарская область     53°20′53″N   50°12′55″E
темп.,
°C
ветер,
м/с
пор.,
м/с
влажн.,
%
обл.,
%
осадки,
мм/ч
давл.,
гПа
погр.,
м
7 мая, пт
пт701:00+14ююз2359100 0.0 101766
04:00+11ююз246263 0.0 101896
07:00+12ю2660100 0.0 1018236
10:00+17ююз4645100 0.0 1018861
13:00+19ююз6835100 0.0 10172412
16:00+19ююз5734100 0.0 10162464
19:00+17ююз374263 0.0 1015930
22:00+14ю2553100 0.0 1016131
8 мая, сб
сб801:00+13юз1153100 0.0 101615
04:00+12ю1163100 0.1 101615
07:00+13всв246695 0.0 1016126
10:00+17ю344699 0.0 10161061
13:00+20ююз353597 0.0 10162773
16:00+21ю253265 0.0 10142494
19:00+19ююв3541100 0.0 1014313
22:00+15вюв375581 0.0 1014132
9 мая, вс
вс901:00+16ююв3105287 0.0 1014328
04:00+13юв22665 0.0 101443
07:00+14юв236488 0.0 1014167
10:00+20ююв3545100 0.0 1014992
13:00+23ю453286 0.0 10141821
16:00+23ю453084 0.0 10131928
19:00+21вюв2445100 0.0 1013284
22:00+19вюв31052100 0.0 1014300
10 мая, пн
пн1001:00+16вюв2263100 0.0 101525
04:00+15в2265100 0.0 101643
07:00+17в2662100 0.0 1017211
10:00+22вюв354299 0.0 1019726
13:00+25юв4532100 0.0 10192481
16:00+25в4431100 0.0 10192515
19:00+23всв3544100 0.0 1020603
22:00+20всв3753100 0.0 1021224
11 мая, вт
вт1101:00+17св2358100 0.0 102265
04:00+15ссв2367100 0.0 102373
07:00+17св2363100 0.0 1024131
10:00+21всв2348100 0.0 1026615
13:00+24всв3337100 0.0 10251795
16:00+24всв3436100 0.0 10252425
19:00+20св3762100 0.2 1025363
22:00+19св4969100 0.3 1026382